Eau Claire, WI

11:50 PM CDT on October 16, 2017 (GMT -0500)
Chippewa Valley Regional

Weather History for KEAU - May, 2012

Change the Weather History Date:

Friday, May 4, 2012

  Actual Average Record
Temperature  
Mean Temperature 63 °F 54 °F  
Max Temperature 76 °F 66 °F 91 °F (1949)
Min Temperature 50 °F 42 °F 20 °F (1907)
Degree Days  
Heating Degree Days 2 11  
Month to date heating degree days 9 47  
Since 1 July heating degree days 6313 7687  
Cooling Degree Days 0 0  
Month to date cooling degree days 5 0  
Year to date cooling degree days 19 4  
Growing Degree Days 12 (Base 50)    
Moisture  
Dew Point 50 °F    
Average Humidity 70    
Maximum Humidity 93    
Minimum Humidity 46    
Precipitation  
Precipitation 0.05 in 0.11 in 1.38 in (1902)
Month to date precipitation 1.09 0.44  
Year to date precipitation 8.28 6.62  
Snow  
Snow 0.00 in 0.00 in T in (1907)
Month to date snowfall 0.0 0.1  
Since 1 July snowfall 23.8 46.9  
Snow Depth 0.00 in    
Sea Level Pressure  
Sea Level Pressure 29.96 in    
Wind  
Wind Speed 12 mph (ENE)    
Max Wind Speed 20 mph    
Max Gust Speed 28 mph    
Visibility 10 miles    
Events Rain , Thunderstorm    
T = Trace of Precipitation, MM = Missing Value Source: NWS Daily Summary

Daily Weather History Graph

Daily Weather History Graph

Search for Another Location

Airport or City:

Trip Planner

Search our weather history database for the weather conditions in past years. The results will help you decide how hot, cold, wet, or windy it might be!

Date:

Astronomy

May. 04, 2012 Rise Set
Actual Time 5:50 AM CDT 8:15 PM CDT
Civil Twilight 5:17 AM CDT 8:48 PM CDT
Nautical Twilight 4:37 AM CDT 9:29 PM CDT
Astronomical Twilight 3:51 AM CDT 10:15 PM CDT
Moon 6:52 PM CDT (5/4) 4:35 AM CDT (5/4)
Length of Visible Light 15h 30m
Length of Day
14h 25m
Waxing Gibbous, 97% of the Moon is Illuminated
May 4
Waxing Gibbous
May 5
Full
May 12
Last Quarter
May 20
New
May 28
First Quarter

Hourly Weather History & Observations

Time (CDT) Temp. Dew Point Humidity Pressure Visibility Wind Dir Wind Speed Gust Speed Precip Events Conditions
12:56 AM 55.0 °F 53.1 °F 93% 29.92 in 10.0 mi ENE 4.6 mph - N/A   Clear
1:56 AM 55.0 °F 52.0 °F 89% 29.93 in 10.0 mi NNE 4.6 mph - N/A   Clear
2:56 AM 54.0 °F 51.1 °F 90% 29.94 in 10.0 mi NNE 6.9 mph - N/A   Clear
3:56 AM 53.1 °F 48.9 °F 86% 29.94 in 10.0 mi NNE 9.2 mph - N/A   Clear
4:56 AM 51.1 °F 48.0 °F 89% 29.96 in 10.0 mi NNE 6.9 mph - N/A   Clear
5:56 AM 50.0 °F 48.0 °F 93% 29.97 in 10.0 mi NNE 6.9 mph - N/A   Clear
6:56 AM 50.0 °F 48.0 °F 93% 29.99 in 10.0 mi NE 11.5 mph - N/A   Clear
7:56 AM 53.1 °F 48.0 °F 83% 30.00 in 10.0 mi NE 13.8 mph - N/A   Clear
8:56 AM 57.9 °F 48.9 °F 72% 30.01 in 10.0 mi ENE 12.7 mph - N/A   Clear
9:56 AM 62.1 °F 48.9 °F 62% 29.99 in 10.0 mi NE 11.5 mph - N/A   Clear
10:56 AM 66.9 °F 48.0 °F 51% 29.98 in 10.0 mi ENE 17.3 mph 21.9 mph N/A   Clear
11:56 AM 69.1 °F 48.9 °F 49% 29.97 in 10.0 mi ENE 16.1 mph 20.7 mph N/A   Clear
12:56 PM 72.0 °F 51.1 °F 48% 29.98 in 10.0 mi East 12.7 mph 20.7 mph N/A   Clear
1:56 PM 73.9 °F 51.1 °F 45% 29.95 in 10.0 mi East 18.4 mph 24.2 mph N/A   Clear
2:56 PM 73.9 °F 52.0 °F 46% 29.95 in 10.0 mi East 13.8 mph 21.9 mph N/A   Clear
3:56 PM 75.0 °F 53.1 °F 46% 29.93 in 10.0 mi East 16.1 mph - N/A   Partly Cloudy
4:56 PM 73.0 °F 53.1 °F 49% 29.93 in 10.0 mi ESE 12.7 mph - N/A   Overcast
5:56 PM 70.0 °F 52.0 °F 53% 29.94 in 10.0 mi SE 13.8 mph - N/A   Overcast
6:56 PM 68.0 °F 51.8 °F 56% 29.96 in 10.0 mi SE 11.5 mph - N/A   Overcast
7:56 PM 66.0 °F 51.1 °F 59% 29.97 in 10.0 mi SE 11.5 mph - N/A   Overcast
8:32 PM 64.4 °F 50.0 °F 59% 29.97 in 10.0 mi ESE 13.8 mph 21.9 mph N/A Thunderstorm Overcast
8:47 PM 60.8 °F 53.6 °F 77% 29.96 in 9.0 mi East 11.5 mph 25.3 mph 0.01 in Rain Rain
8:56 PM 61.0 °F 54.0 °F 78% 29.96 in 10.0 mi East 6.9 mph - 0.02 in Rain Light Rain
9:56 PM 59.0 °F 51.1 °F 75% 29.96 in 10.0 mi East 13.8 mph 20.7 mph 0.03 in Rain Light Rain
10:56 PM 57.9 °F 48.9 °F 72% 29.95 in 10.0 mi East 16.1 mph 24.2 mph 0.00 in   Overcast
11:56 PM 57.0 °F 46.0 °F 67% 29.98 in 10.0 mi East 16.1 mph 23.0 mph N/A   Mostly Cloudy